Decatur, IL

2:26 PM CST on January 18, 2017 (GMT -0600)
Decatur

Weather History for KDEC - July, 2014

Change the Weather History Date:

Friday, July 25, 2014

  Actual Average Record
Temperature  
Mean Temperature 64 °F 75 °F  
Max Temperature 73 °F 86 °F 104 °F (2012)
Min Temperature 54 °F 64 °F 53 °F (2000)
Degree Days  
Heating Degree Days 1 0  
Month to date heating degree days 2 0  
Since 1 June heating degree days 3 17  
Since 1 July heating degree days 2 0  
Cooling Degree Days 0 10  
Month to date cooling degree days 141 272  
Year to date cooling degree days 562 588  
Since 1 June cooling degree days 417 501  
Growing Degree Days 14 (Base 50)    
Moisture  
Dew Point 59 °F    
Average Humidity 79    
Maximum Humidity 93    
Minimum Humidity 64    
Precipitation  
Precipitation 0.14 in 0.12 in 0.27 in (2016)
Month to date precipitation 2.30 3.19  
Year to date precipitation 18.86 21.99  
Sea Level Pressure  
Sea Level Pressure 30.01 in    
Wind  
Wind Speed 7 mph (South)    
Max Wind Speed 25 mph    
Max Gust Speed 32 mph    
Visibility 10 miles    
Events Rain    
T = Trace of Precipitation, MM = Missing Value Source: NWS Daily Summary

Daily Weather History Graph

Daily Weather History Graph

Search for Another Location

Airport or City:

Trip Planner

Search our weather history database for the weather conditions in past years. The results will help you decide how hot, cold, wet, or windy it might be!

Date:

Astronomy

Jul. 25, 2014 Rise Set
Actual Time 5:48 AM CDT 8:15 PM CDT
Civil Twilight 5:17 AM CDT 8:46 PM CDT
Nautical Twilight 4:38 AM CDT 9:24 PM CDT
Astronomical Twilight 3:56 AM CDT 10:06 PM CDT
Moon 4:47 AM CDT (7/25) 7:12 PM CDT (7/25)
Length of Visible Light 15h 29m
Length of Day
14h 27m
Waning Crescent, 1% of the Moon is Illuminated
Jul 25
Waning Crescent
Jul 26
New
Aug 3
First Quarter
Aug 10
Full
Aug 17
Last Quarter

Hourly Weather History & Observations

Time (CDT) Temp. Dew Point Humidity Pressure Visibility Wind Dir Wind Speed Gust Speed Precip Events Conditions
12:54 AM 60.1 °F 55.0 °F 83% 30.05 in 10.0 mi Calm Calm - N/A   Clear
1:54 AM 60.1 °F 55.0 °F 83% 30.06 in 10.0 mi Calm Calm - N/A   Clear
2:54 AM 57.9 °F 54.0 °F 87% 30.06 in 10.0 mi Calm Calm - N/A   Clear
3:54 AM 57.0 °F 54.0 °F 89% 30.05 in 10.0 mi ESE 3.5 mph - N/A   Clear
4:54 AM 55.0 °F 53.1 °F 93% 30.05 in 10.0 mi Calm Calm - N/A   Clear
5:54 AM 60.1 °F 55.9 °F 86% 30.05 in 10.0 mi South 3.5 mph - N/A   Clear
6:54 AM 59.0 °F 55.9 °F 90% 30.07 in 10.0 mi Calm Calm - N/A   Clear
7:54 AM 64.0 °F 57.9 °F 80% 30.10 in 10.0 mi Calm Calm - N/A   Clear
8:54 AM 64.9 °F 59.0 °F 81% 30.09 in 10.0 mi SSE 4.6 mph - N/A   Clear
9:54 AM 66.0 °F 59.0 °F 78% 30.10 in 10.0 mi SSW 5.8 mph - N/A   Partly Cloudy
10:54 AM 66.0 °F 60.1 °F 81% 30.06 in 10.0 mi SSW 6.9 mph - 0.00 in Rain Light Rain
11:54 AM 64.9 °F 61.0 °F 87% 30.05 in 9.0 mi South 5.8 mph - 0.01 in Rain Light Rain
12:54 PM 64.9 °F 62.1 °F 90% 30.08 in 7.0 mi SSE 3.5 mph - 0.05 in Rain Light Rain
1:54 PM 64.9 °F 64.0 °F 97% 29.95 in 10.0 mi South 18.4 mph - 0.08 in   Mostly Cloudy
2:54 PM 68.0 °F 61.0 °F 78% 29.95 in 10.0 mi SSW 10.4 mph - N/A   Clear
3:54 PM 70.0 °F 61.0 °F 73% 29.88 in 10.0 mi SSW 20.7 mph 25.3 mph 0.00 in   Clear
4:54 PM 72.0 °F 62.1 °F 71% 29.91 in 10.0 mi South 11.5 mph - N/A   Clear
5:54 PM 73.0 °F 61.0 °F 66% 29.91 in 10.0 mi South 10.4 mph - N/A   Clear
6:54 PM 72.0 °F 61.0 °F 68% 29.94 in 10.0 mi SW 4.6 mph - N/A   Clear
7:54 PM 70.0 °F 62.1 °F 76% 29.95 in 10.0 mi ESE 4.6 mph - N/A   Clear
8:54 PM 66.9 °F 62.1 °F 84% 29.95 in 10.0 mi ESE 6.9 mph - N/A   Overcast
9:54 PM 68.0 °F 62.1 °F 81% 29.95 in 10.0 mi SE 8.1 mph - N/A   Overcast
10:54 PM 69.1 °F 61.0 °F 75% 29.94 in 10.0 mi SSE 11.5 mph - N/A   Overcast